Location: Goettingen
(51.5300°N, 9.9433°E)
Time: 19:40:43
(UTC+02:00)

ISS - Pass Details

Date: 19 May 2018
Orbit: 402 x 407 km, 51.6° (Epoch: 27 May)

Event Time Altitude Azimuth Distance (km) Brightness Sun altitude
Exits shadow 00:57:21 32° 96° (E) 712 -2.7 -18.6°
Drops below altitude 10° 00:59:21 10° 81° (E) 1,459 -1.0 -18.7°
Sets 01:01:26 0° 78° (ENE) 2,320 0.1 -18.7°
